RYR55CW LEBL-EGSS

Flight info

Callsign RYR55CW
Flight time N/A
Altitude 32000
Route NATPI DCT EVNAM/N0438F360 DCT TUPAR UN861 ANG/N0435F380 UN861 DIKRO UM185 TELTU
Aircraft B738/M-SDE3FGIJ1LRWY/SB1

Departure

Time 2026-04-30 14:37
Airport Josep Tarradellas Barcelona-El Prat Airport (LEBL)

Arrival

Time N/A
Airport London Stansted Airport (EGSS)
Time Latitude Longitude Altitude Speed Heading
2026-04-30 13:55 41.30319 2.08184 20 ft 0 kts 24°
2026-04-30 14:21 41.30311 2.08179 21 ft 4 kts 25°
2026-04-30 14:22 41.30287 2.08164 20 ft 4 kts 27°
2026-04-30 14:22 41.30243 2.08149 19 ft 4 kts 335°
2026-04-30 14:22 41.30221 2.08164 19 ft 2 kts 335°
2026-04-30 14:23 41.30220 2.08165 19 ft 0 kts 336°
2026-04-30 14:26 41.30217 2.08153 18 ft 1 kts 234°
2026-04-30 14:27 41.30200 2.08134 18 ft 5 kts 220°
2026-04-30 14:27 41.30176 2.08086 19 ft 7 kts 244°
2026-04-30 14:27 41.30157 2.08030 17 ft 7 kts 246°
2026-04-30 14:28 41.30088 2.07962 16 ft 8 kts 162°
2026-04-30 14:28 41.30033 2.07993 16 ft 8 kts 155°
2026-04-30 14:28 41.29981 2.08027 17 ft 8 kts 155°
2026-04-30 14:28 41.29928 2.08055 17 ft 8 kts 159°
2026-04-30 14:29 41.29803 2.08115 18 ft 13 kts 157°
2026-04-30 14:29 41.29601 2.08237 16 ft 18 kts 155°
2026-04-30 14:30 41.29285 2.08428 19 ft 16 kts 155°
2026-04-30 14:31 41.29152 2.08507 19 ft 11 kts 155°
2026-04-30 14:31 41.28931 2.08642 16 ft 19 kts 156°
2026-04-30 14:31 41.28859 2.08672 16 ft 7 kts 191°
2026-04-30 14:32 41.28832 2.08639 16 ft 0 kts 241°
2026-04-30 14:32 41.28830 2.08632 16 ft 4 kts 242°
2026-04-30 14:32 41.28792 2.08526 16 ft 16 kts 246°
2026-04-30 14:33 41.28752 2.08406 16 ft 15 kts 246°
2026-04-30 14:33 41.28679 2.08196 17 ft 12 kts 245°
2026-04-30 14:33 41.28638 2.08075 17 ft 17 kts 245°
2026-04-30 14:34 41.28586 2.07923 15 ft 20 kts 245°
2026-04-30 14:34 41.28532 2.07767 15 ft 19 kts 245°
2026-04-30 14:34 41.28489 2.07642 16 ft 7 kts 245°
2026-04-30 14:34 41.28453 2.07578 15 ft 8 kts 212°
2026-04-30 14:35 41.28421 2.07560 15 ft 0 kts 199°
2026-04-30 14:35 41.28420 2.07559 15 ft 4 kts 200°
2026-04-30 14:35 41.28397 2.07548 15 ft 5 kts 200°
2026-04-30 14:36 41.28314 2.07494 16 ft 14 kts 229°
2026-04-30 14:36 41.28262 2.07429 17 ft 11 kts 167°
2026-04-30 14:36 41.28247 2.07482 18 ft 6 kts 69°
2026-04-30 14:36 41.28249 2.07490 18 ft 0 kts 66°
2026-04-30 14:37 41.28274 2.07561 20 ft 33 kts 65°
2026-04-30 14:37 41.28475 2.08152 20 ft 106 kts 65°
2026-04-30 14:37 41.28872 2.09278 132 ft 154 kts 66°
2026-04-30 14:37 41.29320 2.10560 988 ft 154 kts 74°
2026-04-30 14:38 41.29325 2.11954 1860 ft 150 kts 98°
2026-04-30 14:38 41.29173 2.13322 2534 ft 153 kts 95°
2026-04-30 14:38 41.29041 2.14759 3044 ft 159 kts 95°
2026-04-30 14:38 41.28905 2.16245 3497 ft 172 kts 96°
2026-04-30 14:39 41.28754 2.17901 3801 ft 188 kts 96°
2026-04-30 14:39 41.28591 2.19671 4343 ft 195 kts 97°
2026-04-30 14:39 41.28425 2.21470 4737 ft 205 kts 97°
2026-04-30 14:40 41.28063 2.25381 5552 ft 223 kts 98°
2026-04-30 14:40 41.27904 2.27467 6106 ft 229 kts 88°
2026-04-30 14:40 41.28378 2.29481 6722 ft 235 kts 56°
2026-04-30 14:40 41.29638 2.30937 7061 ft 255 kts 23°
2026-04-30 14:41 41.31443 2.31429 7306 ft 275 kts
2026-04-30 14:41 41.33393 2.31639 7808 ft 286 kts
2026-04-30 14:41 41.35392 2.31847 8462 ft 292 kts
2026-04-30 14:41 41.37433 2.32081 9169 ft 296 kts
2026-04-30 14:42 41.39492 2.32335 9934 ft 298 kts
2026-04-30 14:42 41.41576 2.32599 10507 ft 308 kts
2026-04-30 14:42 41.43792 2.32915 10657 ft 333 kts
2026-04-30 14:42 41.46139 2.33440 10890 ft 352 kts
2026-04-30 14:43 41.48553 2.34055 11370 ft 362 kts
2026-04-30 14:43 41.51072 2.34705 12102 ft 365 kts
2026-04-30 14:43 41.53546 2.35332 12809 ft 368 kts
2026-04-30 14:43 41.56082 2.35963 13507 ft 373 kts
2026-04-30 14:44 41.58650 2.36592 14187 ft 377 kts
2026-04-30 14:44 41.61246 2.37224 14892 ft 380 kts
2026-04-30 14:44 41.63861 2.37758 15614 ft 380 kts 359°
2026-04-30 14:44 41.66457 2.37260 16307 ft 377 kts 338°
2026-04-30 14:45 41.68737 2.35583 17016 ft 374 kts 318°
2026-04-30 14:45 41.70457 2.32993 17701 ft 373 kts 300°
2026-04-30 14:45 41.71503 2.29824 18330 ft 375 kts 282°
2026-04-30 14:45 41.71919 2.26379 18966 ft 376 kts 276°
2026-04-30 14:46 41.72206 2.22894 19554 ft 378 kts 275°
2026-04-30 14:46 41.72481 2.19367 20133 ft 382 kts 275°
2026-04-30 14:46 41.72779 2.15834 20714 ft 384 kts 276°
2026-04-30 14:46 41.73099 2.12266 21286 ft 387 kts 276°
2026-04-30 14:47 41.73429 2.08669 21834 ft 390 kts 276°
2026-04-30 14:47 41.73760 2.05046 22384 ft 393 kts 276°
2026-04-30 14:47 41.74091 2.01393 22922 ft 396 kts 276°
2026-04-30 14:47 41.74418 1.97767 23440 ft 399 kts 276°
2026-04-30 14:48 41.74751 1.94061 23903 ft 402 kts 276°
2026-04-30 14:48 41.75084 1.90339 24403 ft 403 kts 276°
2026-04-30 14:48 41.75418 1.86609 24935 ft 403 kts 276°
2026-04-30 14:48 41.75749 1.82887 25430 ft 403 kts 276°
2026-04-30 14:49 41.76079 1.79154 25884 ft 404 kts 276°
2026-04-30 14:49 41.76537 1.75422 26264 ft 408 kts 285°
2026-04-30 14:49 41.77752 1.71974 26689 ft 414 kts 301°
2026-04-30 14:49 41.79647 1.69047 27154 ft 420 kts 314°
2026-04-30 14:50 41.84880 1.65310 27954 ft 436 kts 335°
2026-04-30 14:50 41.87753 1.63967 28300 ft 439 kts 336°
2026-04-30 14:51 41.93495 1.61376 28980 ft 443 kts 336°
2026-04-30 14:51 41.96424 1.60036 29330 ft 445 kts 336°
2026-04-30 14:51 42.02293 1.57295 30004 ft 448 kts 335°
2026-04-30 14:52 42.05244 1.55897 30301 ft 450 kts 335°
2026-04-30 14:52 42.11140 1.53091 31050 ft 447 kts 335°
2026-04-30 14:52 42.14024 1.51716 31518 ft 444 kts 335°
2026-04-30 14:53 42.19838 1.48939 32226 ft 443 kts 334°
2026-04-30 14:53 42.22729 1.47557 32604 ft 441 kts 334°
2026-04-30 14:54 42.28492 1.44796 33322 ft 439 kts 334°
2026-04-30 14:54 42.34244 1.42032 34040 ft 437 kts 334°
2026-04-30 14:55 42.39943 1.39292 34726 ft 434 kts 334°
2026-04-30 14:55 42.42790 1.37920 34958 ft 435 kts 334°
2026-04-30 14:55 42.48483 1.35172 35530 ft 434 kts 334°
2026-04-30 14:56 42.54182 1.32418 36000 ft 435 kts 334°
2026-04-30 14:56 42.59873 1.29662 36520 ft 434 kts 334°
2026-04-30 14:57 42.62711 1.28286 36790 ft 433 kts 334°
2026-04-30 14:57 42.68403 1.25520 37250 ft 435 kts 334°
2026-04-30 14:58 42.74148 1.23129 37621 ft 441 kts 346°
2026-04-30 14:58 42.77212 1.22655 37740 ft 444 kts 349°
2026-04-30 14:58 42.83385 1.21940 38047 ft 443 kts 349°
2026-04-30 15:00 42.98824 1.19955 38100 ft 450 kts 349°
2026-04-30 15:01 43.11303 1.18225 38092 ft 453 kts 349°
2026-04-30 15:01 43.20728 1.16918 38081 ft 452 kts 349°
2026-04-30 15:02 43.25922 1.16197 38085 ft 451 kts 349°
2026-04-30 15:03 43.41452 1.14030 38091 ft 447 kts 349°
2026-04-30 15:04 43.56901 1.11862 38100 ft 447 kts 349°
2026-04-30 15:05 43.65681 1.08422 38106 ft 435 kts 332°
2026-04-30 15:06 43.71236 1.05014 38099 ft 438 kts 331°
2026-04-30 15:07 43.82456 0.98184 38094 ft 442 kts 332°
2026-04-30 15:08 43.93731 0.91396 38094 ft 444 kts 332°
2026-04-30 15:09 44.07915 0.82820 38103 ft 446 kts 333°
2026-04-30 15:10 44.19307 0.75897 38105 ft 447 kts 333°
2026-04-30 15:11 44.36418 0.65444 38103 ft 448 kts 333°
2026-04-30 15:13 44.50650 0.56698 38110 ft 448 kts 333°